Location: Northam
(31.6525°S, 116.6655°E)
Time: 23:15:58
(UTC+08:00)

Envisat - Pass Details

Date: 17 May 2021
Orbit: 764 x 766 km, 98.1° (Epoch: 14 June)

Event Time Altitude Azimuth Distance (km) Brightness Sun altitude
Rises 03:33:06 0° 64° (ENE) 3,228 6.9 -42.9°
Reaches altitude 10° 03:37:02 10° 95° (E) 2,314 6.1 -42.1°
Maximum altitude 03:38:45 12° 115° (ESE) 2,204 5.9 -41.7°
Enters shadow 03:40:27 10° 135° (SE) 2,323 5.9 -41.3°
